This is the latest recevied weather packets stored in our database for station/object OK1UOJ. If no packets are shown the sender has not sent any weather packets the latest 1 day(s).
| Time | Temp. | Humidity | Pressure | Rain* | Wind** | Luminosity | Snow |
|---|---|---|---|---|---|---|---|
| 1777966003 | 17.22° C | 92% | 1011.1 hPa | - | 2.24 m/s, 135° | - | - |
| 1777965730 | 17.22° C | 90% | 1011 hPa | - | 1.79 m/s, 126° | - | - |
| 1777965730 | 17.22° C | 90% | 1011 hPa | - | 1.79 m/s, 126° | - | - |
| 1777965725 | 17.22° C | 90% | 1011 hPa | - | 1.79 m/s, 126° | - | - |
| 1777965447 | 16.11° C | 10% | - | - | 1.79 m/s, 123° | - | - |
| 1777965170 | 15.56° C | 10% | - | - | 1.79 m/s, 129° | - | - |
| 1777964615 | 15° C | 10% | - | - | 1.34 m/s, 134° | - | - |
| 1777964337 | 14.44° C | 10% | - | - | 1.34 m/s, 125° | - | - |
| 1777964059 | 14.44° C | 10% | - | - | 1.79 m/s, 135° | - | - |
| 1777963781 | 14.44° C | 10% | - | - | 1.79 m/s, 132° | - | - |
| 1777963504 | 14.44° C | 10% | - | - | 1.79 m/s, 135° | - | - |
| 1777963226 | 14.44° C | 10% | - | - | 1.79 m/s, 123° | - | - |
| 1777962948 | 14.44° C | 10% | - | - | 1.79 m/s, 129° | - | - |
| 1777962393 | 14.44° C | 10% | - | - | 2.24 m/s, 132° | - | - |
| 1777961005 | - | - | - | - | 3.13 m/s, 134° | - | - |
| 1777960728 | 13.89° C | 10% | - | - | 2.68 m/s, 135° | - | - |
| 1777960450 | 13.89° C | 10% | - | - | 2.68 m/s, 125° | - | - |
| 1777959895 | - | - | - | - | 3.58 m/s, 135° | - | - |
| 1777959617 | 13.89° C | 10% | - | - | 3.13 m/s, 126° | - | - |
| 1777957952 | 13.33° C | 10% | - | - | 3.13 m/s, 132° | - | - |
| 1777957675 | 13.33° C | 10% | - | - | 2.68 m/s, 135° | - | - |
| 1777957397 | 12.78° C | 10% | - | - | 3.13 m/s, 138° | - | - |
| 1777957120 | - | - | - | - | 3.13 m/s, 132° | - | - |
| 1777956842 | - | - | - | - | 3.13 m/s, 135° | - | - |
| 1777956010 | 12.22° C | 10% | - | - | 3.13 m/s, 132° | - | - |
* Rain since midnight (hover to see other rain measurements)
** Current wind speed in m/s (hover to see current wind gust speed)